• In Schweiz
  • Länderverzeichnis
  • Für 7 Tage
  • Wassertemperatur
  • Satellitenkarten
  • Wetterkarte
  • Widgets
  • user-avatar
    Anmelden

    Stündliche Wetter Sahunivka

    Heute, 19 Juni, Dienstag

    Zeit Temperatur Niederschläge Wind Luftdruck Luftfeuchtigkeit
    00:00 +19°C° 0 mm 2 m/S 754 mmHg 77%
    01:00 +19°C° 0 mm 2 m/S 754 mmHg 78%
    02:00 +18°C° 0 mm 2 m/S 754 mmHg 80%
    03:00 +18°C° 0 mm 2 m/S 754 mmHg 81%
    04:00 +18°C° 0 mm 2 m/S 754 mmHg 82%
    05:00 +18°C° 0 mm 2 m/S 754 mmHg 83%
    06:00 +20°C° 0 mm 2 m/S 754 mmHg 78%
    07:00 +23°C° 0 mm 2 m/S 755 mmHg 72%
    08:00 +24°C° 0 mm 2 m/S 755 mmHg 67%
    09:00 +25°C° 0 mm 2 m/S 755 mmHg 63%
    10:00 +27°C° 0 mm 2 m/S 755 mmHg 58%
    11:00 +28°C° 0 mm 2 m/S 755 mmHg 54%
    12:00 +28°C° 0 mm 2 m/S 755 mmHg 52%
    13:00 +29°C° 0 mm 1 m/S 755 mmHg 51%
    14:00 +29°C° 0 mm 1 m/S 754 mmHg 49%
    15:00 +29°C° 0 mm 1 m/S 754 mmHg 50%
    16:00 +29°C° 0 mm 1 m/S 754 mmHg 52%
    17:00 +29°C° 0 mm 1 m/S 754 mmHg 53%
    18:00 +27°C° 0 mm 1 m/S 754 mmHg 58%
    19:00 +26°C° 0 mm 1 m/S 754 mmHg 63%
    20:00 +24°C° 0 mm 1 m/S 754 mmHg 68%
    21:00 +23°C° 0 mm 1 m/S 755 mmHg 69%
    22:00 +23°C° 0 mm 1 m/S 755 mmHg 70%
    23:00 +23°C° 0 mm 1 m/S 755 mmHg 72%

    Morgen, 20 Juni, Mittwoch

    Zeit Temperatur Niederschläge Wind Luftdruck Luftfeuchtigkeit
    00:00 +22°C° 0 mm 1 m/S 755 mmHg 74%
    01:00 +21°C° 0 mm 2 m/S 755 mmHg 75%
    02:00 +21°C° 0 mm 2 m/S 755 mmHg 77%
    03:00 +21°C° 0 mm 2 m/S 755 mmHg 80%
    04:00 +21°C° 0 mm 2 m/S 755 mmHg 82%
    05:00 +21°C° 0 mm 2 m/S 755 mmHg 85%
    06:00 +23°C° 0 mm 2 m/S 756 mmHg 82%
    07:00 +25°C° 0 mm 3 m/S 756 mmHg 78%
    08:00 +26°C° 0 mm 3 m/S 756 mmHg 75%
    09:00 +27°C° 0,5 mm 4 m/S 756 mmHg 72%
    10:00 +28°C° 0,5 mm 4 m/S 756 mmHg 69%
    11:00 +28°C° 0,5 mm 5 m/S 756 mmHg 66%
    12:00 +28°C° 0,1 mm 5 m/S 756 mmHg 64%
    13:00 +29°C° 0,1 mm 5 m/S 756 mmHg 62%
    14:00 +29°C° 0,1 mm 5 m/S 756 mmHg 59%
    15:00 +28°C° 0 mm 4 m/S 756 mmHg 61%
    16:00 +28°C° 0 mm 4 m/S 756 mmHg 62%
    17:00 +28°C° 0 mm 4 m/S 755 mmHg 63%
    18:00 +26°C° 0 mm 4 m/S 756 mmHg 68%
    19:00 +24°C° 0 mm 3 m/S 756 mmHg 73%
    20:00 +22°C° 0 mm 3 m/S 756 mmHg 78%
    21:00 +21°C° 0 mm 2 m/S 756 mmHg 79%
    22:00 +20°C° 0 mm 2 m/S 756 mmHg 80%
    23:00 +19°C° 0 mm 2 m/S 757 mmHg 81%

    übermorgen, 21 Juni, Donnerstag

    Zeit Temperatur Niederschläge Wind Luftdruck Luftfeuchtigkeit
    00:00 +19°C° 0 mm 2 m/S 757 mmHg 81%
    01:00 +18°C° 0 mm 2 m/S 757 mmHg 81%
    02:00 +18°C° 0 mm 1 m/S 757 mmHg 81%
    03:00 +18°C° 0 mm 1 m/S 757 mmHg 81%
    04:00 +18°C° 0 mm 1 m/S 757 mmHg 82%
    05:00 +18°C° 0 mm 1 m/S 757 mmHg 82%
    06:00 +20°C° 0 mm 1 m/S 757 mmHg 76%
    07:00 +21°C° 0 mm 2 m/S 757 mmHg 70%
    08:00 +24°C° 0 mm 2 m/S 757 mmHg 64%
    09:00 +25°C° 0 mm 2 m/S 756 mmHg 60%
    10:00 +26°C° 0 mm 2 m/S 756 mmHg 56%
    11:00 +27°C° 0 mm 3 m/S 756 mmHg 52%
    12:00 +27°C° 0 mm 2 m/S 755 mmHg 51%
    13:00 +28°C° 0 mm 2 m/S 755 mmHg 50%
    14:00 +28°C° 0 mm 2 m/S 755 mmHg 49%
    15:00 +28°C° 0 mm 2 m/S 754 mmHg 50%
    16:00 +28°C° 0 mm 2 m/S 754 mmHg 51%
    17:00 +28°C° 0 mm 2 m/S 754 mmHg 52%
    18:00 +26°C° 0 mm 2 m/S 754 mmHg 57%
    19:00 +24°C° 0 mm 2 m/S 753 mmHg 62%
    20:00 +23°C° 0 mm 1 m/S 753 mmHg 66%
    21:00 +22°C° 0 mm 1 m/S 753 mmHg 68%
    22:00 +21°C° 0 mm 1 m/S 753 mmHg 69%
    23:00 +21°C° 0 mm 1 m/S 753 mmHg 71%

    22 Juni, Freitag

    Zeit Temperatur Niederschläge Wind Luftdruck Luftfeuchtigkeit
    00:00 +20°C° 0 mm 1 m/S 753 mmHg 72%
    01:00 +19°C° 0 mm 2 m/S 752 mmHg 73%
    02:00 +18°C° 0 mm 2 m/S 752 mmHg 75%
    03:00 +18°C° 0 mm 2 m/S 752 mmHg 76%
    04:00 +18°C° 0 mm 2 m/S 752 mmHg 78%
    05:00 +18°C° 0 mm 2 m/S 751 mmHg 79%
    06:00 +20°C° 0 mm 2 m/S 751 mmHg 75%
    07:00 +23°C° 0 mm 2 m/S 751 mmHg 70%
    08:00 +25°C° 0 mm 3 m/S 751 mmHg 66%
    09:00 +26°C° 0 mm 3 m/S 750 mmHg 62%
    10:00 +28°C° 0 mm 3 m/S 750 mmHg 57%
    11:00 +29°C° 0 mm 3 m/S 750 mmHg 53%
    12:00 +30°C° 0 mm 3 m/S 749 mmHg 53%
    13:00 +30°C° 0 mm 3 m/S 749 mmHg 53%
    14:00 +30°C° 0 mm 3 m/S 748 mmHg 53%
    15:00 +30°C° 0,4 mm 3 m/S 748 mmHg 56%
    16:00 +30°C° 0,4 mm 2 m/S 748 mmHg 60%
    17:00 +29°C° 0,4 mm 2 m/S 748 mmHg 63%
    18:00 +28°C° 0,2 mm 2 m/S 748 mmHg 67%
    19:00 +26°C° 0,2 mm 1 m/S 748 mmHg 71%
    20:00 +25°C° 0,2 mm 1 m/S 748 mmHg 75%
    21:00 +24°C° 0,8 mm 1 m/S 748 mmHg 79%
    22:00 +23°C° 0,8 mm 2 m/S 748 mmHg 83%
    23:00 +21°C° 0,8 mm 2 m/S 748 mmHg 87%

    23 Juni, Samstag

    Zeit Temperatur Niederschläge Wind Luftdruck Luftfeuchtigkeit
    00:00 +21°C° 1,6 mm 2 m/S 748 mmHg 89%
    01:00 +20°C° 1,6 mm 2 m/S 748 mmHg 91%
    02:00 +20°C° 1,6 mm 3 m/S 748 mmHg 93%
    03:00 +19°C° 0,3 mm 3 m/S 748 mmHg 93%
    04:00 +18°C° 0,3 mm 4 m/S 748 mmHg 93%
    05:00 +17°C° 0,3 mm 4 m/S 748 mmHg 94%
    06:00 +16°C° 0,2 mm 5 m/S 748 mmHg 93%
    07:00 +16°C° 0,2 mm 5 m/S 748 mmHg 91%
    08:00 +15°C° 0,2 mm 6 m/S 749 mmHg 90%
    09:00 +15°C° 0,1 mm 7 m/S 749 mmHg 87%
    10:00 +15°C° 0,1 mm 7 m/S 749 mmHg 85%
    11:00 +16°C° 0,1 mm 8 m/S 749 mmHg 82%
    12:00 +15°C° 0,3 mm 8 m/S 750 mmHg 82%
    13:00 +13°C° 0,3 mm 8 m/S 750 mmHg 83%
    14:00 +12°C° 0,3 mm 8 m/S 750 mmHg 84%
    15:00 +12°C° 0,7 mm 8 m/S 751 mmHg 85%
    16:00 +11°C° 0,7 mm 8 m/S 751 mmHg 85%
    17:00 +11°C° 0,7 mm 7 m/S 751 mmHg 86%
    18:00 +11°C° 0 mm 6 m/S 751 mmHg 86%
    19:00 +10°C° 0 mm 5 m/S 752 mmHg 87%
    20:00 +11°C° 0 mm 3 m/S 752 mmHg 87%
    21:00 +11°C° 0 mm 3 m/S 752 mmHg 88%
    22:00 +10°C° 0 mm 2 m/S 753 mmHg 89%
    23:00 +10°C° 0 mm 2 m/S 753 mmHg 90%

    24 Juni, Sonntag

    Zeit Temperatur Niederschläge Wind Luftdruck Luftfeuchtigkeit
    00:00 +10°C° 0 mm 2 m/S 753 mmHg 91%
    01:00 +10°C° 0 mm 2 m/S 753 mmHg 92%
    02:00 +10°C° 0 mm 3 m/S 753 mmHg 93%
    03:00 +11°C° 0 mm 3 m/S 754 mmHg 92%
    04:00 +11°C° 0 mm 3 m/S 754 mmHg 91%
    05:00 +11°C° 0 mm 3 m/S 754 mmHg 91%
    06:00 +13°C° 0 mm 3 m/S 754 mmHg 85%
    07:00 +16°C° 0 mm 3 m/S 754 mmHg 79%
    08:00 +18°C° 0 mm 3 m/S 755 mmHg 73%
    09:00 +19°C° 0 mm 3 m/S 755 mmHg 68%
    10:00 +20°C° 0 mm 3 m/S 755 mmHg 62%
    11:00 +21°C° 0 mm 3 m/S 755 mmHg 57%
    12:00 +21°C° 0 mm 3 m/S 755 mmHg 55%
    13:00 +22°C° 0 mm 3 m/S 755 mmHg 53%
    14:00 +22°C° 0 mm 3 m/S 755 mmHg 52%
    15:00 +22°C° 0 mm 3 m/S 755 mmHg 53%
    16:00 +22°C° 0 mm 3 m/S 755 mmHg 55%
    17:00 +22°C° 0 mm 3 m/S 755 mmHg 57%
    18:00 +20°C° 0 mm 2 m/S 755 mmHg 61%
    19:00 +18°C° 0 mm 2 m/S 755 mmHg 66%
    20:00 +17°C° 0 mm 2 m/S 756 mmHg 71%
    21:00 +16°C° 0 mm 2 m/S 756 mmHg 73%
    22:00 +16°C° 0 mm 2 m/S 756 mmHg 75%
    23:00 +15°C° 0 mm 2 m/S 756 mmHg 78%
    Mehr zeigen